This demonstration page uses our WeatherBlox Daily Observations layout. Learn more.

Left ArrowRight Arrow

Hourly Observations for April 7, 2022

Temp ( °F °C ) Dew Point ( °F °C ) Humidity (%) Winds ( mph kmh ) Pressure ( in mb ) Visibility ( mi km ) Precip ( " mm )
12:52 am 00:52 Clear 42 5.6 29 -1.7 60 60 NW 12 19 29.95 1014 10 16 0.00 0.00
1:52 am 01:52 Clear 41 5 29 -1.7 62 62 W 6 9 29.94 1014 10 16 0.00 0.00
2:52 am 02:52 Clear 40 4.4 29 -1.7 65 65 W 9 15 29.92 1013 10 16 0.00 0.00
3:52 am 03:52 Clear 41 5 29 -1.7 62 62 W 12 19 29.91 1013 10 16 0.00 0.00
4:52 am 04:52 Clear 40 4.4 29 -1.7 65 65 W 10 17 29.90 1013 10 16 0.00 0.00
5:52 am 05:52 Clear 40 4.4 29 -1.7 65 65 W 10 17 29.90 1013 10 16 0.00 0.00
6:52 am 06:52 Sunny 40 4.4 30 -1.1 68 68 W 12 19 29.91 1013 10 16 0.00 0.00
7:52 am 07:52 Sunny 42 5.6 31 -0.6 65 65 WNW 15 24 29.92 1013 10 16 0.00 0.00
8:52 am 08:52 Sunny 45 7.2 30 -1.1 56 56 NW 20 31 29.92 1013 10 16 0.00 0.00
9:52 am 09:52 Mostly Sunny 48 8.9 30 -1.1 50 50 W 21 33 29.91 1013 10 16 0.00 0.00
10:52 am 10:52 Mostly Sunny 49 9.4 27 -2.8 43 43 WNW 23 37 29.91 1013 10 16 0.00 0.00
11:52 am 11:52 Cloudy 49 9.4 27 -2.8 43 43 W 22 35 29.91 1013 10 16 0.00 0.00
12:52 pm 12:52 Mostly Cloudy 51 10.6 28 -2.2 41 41 W 17 28 29.90 1012 10 16 0.00 0.00
1:52 pm 13:52 Cloudy 51 10.6 26 -3.3 38 38 WNW 25 41 29.89 1012 10 16 0.00 0.00
2:52 pm 14:52 Cloudy 51 10.6 27 -2.8 39 39 WNW 18 30 29.88 1012 10 16 0.00 0.00
3:52 pm 15:52 Cloudy 51 10.6 26 -3.3 38 38 W 30 48 29.88 1012 10 16 0.00 0.00
4:52 pm 16:52 Cloudy with Light Rain 47 8.3 34 1.1 61 61 W 18 30 29.89 1012 10 16 0.00 0.00
5:52 pm 17:52 Cloudy with Light Rain 45 7.2 34 1.1 66 66 WNW 13 20 29.90 1013 10 16 0.00 0.00
6:52 pm 18:52 Cloudy 44 6.7 30 -1.1 58 58 NW 21 33 29.92 1013 10 16 0.00 0.00
7:52 pm 19:52 Mostly Cloudy 44 6.7 28 -2.2 53 53 NW 14 22 29.91 1013 10 16 0.00 0.00
8:52 pm 20:52 Mostly Cloudy 43 6.1 26 -3.3 51 51 NW 13 20 29.92 1013 10 16 0.00 0.00
9:52 pm 21:52 Cloudy 43 6.1 25 -3.9 49 49 NW 15 24 29.92 1013 10 16 0.00 0.00
10:52 pm 22:52 Cloudy 42 5.6 26 -3.3 53 53 WNW 17 28 29.90 1013 10 16 0.00 0.00
11:52 pm 23:52 Cloudy 42 5.6 27 -2.8 55 55 W 17 28 29.89 1012 10 16 0.00 0.00

Powered by AerisWeather